Volver al catálogo

INMARSAT 3-F3

ActivoComunicacionesGEO
NORAD 24674·PAYLOAD·🇮🇲 IM

Lanzado Dec 18, 1996 desde Cape Canaveral Space Force Station

Loading…

TLE

ActualizadoSource: Space-Track

Época: Sep 14, 2026, 06:44 UTC

1 24674U 96070A   26257.28079766 -.00000294  00000-0  00000-0 0  9998
2 24674  10.5072  48.7685 0005901 151.0460 208.2270  0.99992860108798

Sigue INMARSAT 3-F3 en tiempo real con AllMySat

Download on the App Store